Temperature
6 6 6 6 6 6 6 7 7 8 7 8 8 7 6 5 4 4 3 3 2 2 2 2 3 3 3 3 3 3 4 4 4 4 4 5 5 5 5 5 5 5 5 5
6 6 6 6 6 6 6 6 6 7 7 8 7 6 6 5 4 3 3 3 2 2 2 2 2 2 3 3 3 3 3 3 3 3 4 4 4 4 4 5 5 5 5 5
7 6 6 7 8 7 6 6 7 7 8 7 6 6 5 4 4 3 3 2 2 2 2 2 2 2 2 2 2 3 3 3 3 3 3 3 3 3 4 4 4 4 4 4
6 7 7 9 7 7 7 7 7 7 7 7 6 5 4 4 3 3 3 2 2 2 2 2 2 2 2 2 2 2 2 2 2 3 3 3 3 3 3 3 3 3 4 4
6 7 8 8 6 6 6 7 7 7 7 6 4 4 5 4 4 3 3 3 2 2 2 2 2 2 2 2 2 2 2 2 2 2 2 2 2 2 3 3 3 3 3 3
5 7 8 9 6 5 6 8 7 6 6 5 4 7 7 4 4 3 3 3 2 2 2 2 2 2 2 2 2 2 2 2 2 2 2 2 2 2 2 2 2 2 2 2
5 6 8 8 5 5 7 9 6 5 5 4 5 6 5 4 4 4 3 3 3 2 2 2 2 2 2 2 1 1 1 1 1 2 2 1 1 1 1 2 2 2 2 2
5 6 8 6 5 6 8 6 5 4 4 4 4 4 4 4 4 3 3 3 2 2 2 2 2 1 1 1 1 1 1 1 1 1 1 1 1 1 1 1 1 1 1 1
6 8 7 4 5 5 5 5 4 4 4 4 3 3 4 3 3 3 3 2 2 2 2 1 1 1 1 1 1 1 1 1 0 0 0 0 0 0 0 1 1 0 0 0
4 6 5 4 4 5 5 4 5 4 4 4 3 3 3 3 3 3 2 2 2 2 1 1 1 1 1 1 1 0 0 0 -0 -0 -0 -0 -0 -0 -0 -0 -0 -0 -0 -0
4 5 5 5 5 5 5 5 5 4 4 4 4 3 3 3 3 2 2 2 2 1 1 1 1 1 1 0 0 -0 -0 -0 -1 -1 -1 -1 -1 -1 -1 -1 -1 -1 -1 -1
6 6 6 6 6 5 4 4 4 4 4 4 4 3 3 3 3 2 2 2 2 1 1 1 1 1 0 -0 -0 -1 -1 -1 -1 -1 -1 -1 -2 -1 -1 -1 -1 -1 -2 -2
5 4 4 5 5 4 4 4 4 4 4 4 4 3 3 3 2 2 2 2 1 1 1 1 1 0 -0 -0 -1 -1 -1 -2 -2 -2 -2 -2 -2 -2 -2 -2 -2 -2 -2 -2
4 3 3 4 4 4 4 4 4 4 3 3 3 3 3 2 2 2 2 1 1 1 1 0 0 -0 -0 -1 -1 -2 -2 -2 -2 -2 -2 -2 -2 -2 -3 -3 -3 -3 -2 -3
3 3 3 3 3 3 3 3 3 3 3 3 3 3 2 2 2 2 2 1 1 1 0 0 -0 -0 -1 -1 -2 -2 -2 -2 -2 -3 -3 -3 -3 -3 -3 -3 -3 -3 -3 -3
3 3 2 2 3 3 2 2 2 3 2 2 2 2 2 2 2 2 1 1 1 0 0 -0 -1 -1 -1 -2 -2 -2 -3 -3 -3 -3 -3 -3 -3 -4 -4 -4 -4 -4 -4 -4
1 1 2 2 2 2 2 2 2 2 2 2 2 2 2 1 1 1 1 0 0 -0 -1 -1 -1 -1 -2 -2 -2 -3 -3 -3 -3 -4 -4 -4 -4 -4 -4 -5 -5 -5 -5 -5
2 2 2 2 2 2 2 2 2 2 2 2 1 1 1 1 1 1 0 -0 -0 -1 -1 -1 -2 -2 -2 -2 -3 -3 -3 -3 -4 -4 -4 -4 -5 -5 -5 -5 -5 -5 -5 -5
2 2 2 2 2 1 1 2 2 2 1 1 1 1 1 1 0 0 -0 -0 -1 -1 -1 -1 -2 -2 -3 -3 -3 -3 -4 -4 -4 -4 -4 -5 -5 -5 -5 -5 -6 -6 -6 -5
2 2 2 2 2 1 1 1 1 1 1 1 1 0 0 0 -0 -0 -1 -1 -1 -1 -2 -2 -2 -3 -3 -3 -4 -4 -4 -4 -4 -5 -5 -5 -5 -6 -6 -6 -6 -6 -6 -6
2 2 1 1 1 1 1 1 1 1 1 0 0 0 -0 -0 -1 -1 -1 -1 -1 -2 -2 -2 -3 -3 -3 -4 -4 -4 -4 -5 -5 -5 -5 -5 -6 -6 -6 -6 -6 -6 -6 -6
2 1 1 1 1 1 1 0 0 0 -0 -0 -0 -1 -1 -1 -1 -2 -2 -2 -2 -2 -3 -3 -3 -3 -4 -4 -4 -4 -5 -5 -5 -5 -6 -6 -6 -6 -6 -6 -6 -7 -7 -7
1 1 1 1 0 0 0 -0 -0 -0 -0 -1 -1 -1 -1 -1 -2 -2 -2 -2 -2 -3 -3 -3 -4 -4 -4 -4 -4 -5 -5 -5 -5 -6 -6 -6 -6 -6 -7 -7 -7 -7 -7 -7
1 1 0 0 -0 -0 -0 -0 -1 -1 -1 -1 -1 -2 -2 -2 -2 -2 -3 -3 -3 -3 -3 -4 -4 -4 -5 -5 -5 -5 -5 -6 -6 -6 -6 -6 -7 -7 -7 -7 -7 -7 -7 -7
1 0 0 -0 -0 -1 -1 -1 -1 -1 -2 -2 -2 -2 -3 -3 -3 -3 -3 -3 -3 -4 -4 -4 -5 -5 -5 -5 -5 -6 -6 -6 -6 -6 -6 -7 -7 -7 -7 -8 -8 -8 -8 -8
0 -0 -0 -1 -1 -1 -1 -2 -2 -2 -2 -2 -3 -3 -3 -3 -3 -4 -4 -4 -4 -4 -5 -5 -5 -5 -6 -6 -6 -6 -6 -6 -6 -7 -7 -7 -7 -7 -8 -8 -8 -8 -8 -8
-0 -1 -1 -1 -1 -2 -2 -2 -2 -2 -3 -3 -3 -3 -3 -4 -4 -4 -4 -4 -4 -5 -5 -5 -6 -6 -6 -6 -6 -6 -7 -7 -7 -7 -7 -7 -8 -8 -8 -8 -8 -8 -8 -8
Wind_Speed
6 6 5 7 9 9 10 8 6 6 6 8 6 5 5 5 5 4 5 6 6 7 7 8 8 8 8 8 9 8 8 8 8 8 7 6 5 5 4 4 3 3 4 4
4 3 5 8 11 11 11 10 10 10 10 7 5 4 4 4 4 4 4 5 6 6 7 7 8 8 8 8 8 8 8 8 8 8 7 7 7 6 6 5 4 3 3 3
3 4 5 7 7 10 7 8 8 9 6 3 3 4 5 5 4 4 4 4 5 5 5 6 6 7 7 7 7 8 8 8 8 7 7 7 6 6 6 5 5 4 4 4
3 4 4 1 1 5 8 8 9 8 6 5 5 5 6 5 4 5 5 5 4 4 5 5 6 6 6 6 6 7 7 8 8 7 7 6 6 6 6 5 5 5 5 5
2 4 6 3 3 4 5 5 7 10 8 5 3 3 4 4 5 5 5 4 4 4 4 5 5 5 5 5 6 7 7 8 8 7 7 7 7 7 6 6 5 5 5 5
3 4 4 0 3 3 3 4 2 5 6 4 2 4 3 2 4 4 4 3 3 3 3 4 4 4 4 5 5 6 7 7 7 7 7 6 7 6 6 5 5 4 4 5
6 6 7 2 3 5 4 1 0 4 5 6 6 5 3 2 4 4 3 3 3 2 3 3 4 3 4 4 5 6 6 7 7 7 7 7 6 6 6 5 5 4 5 5
6 6 6 4 6 6 3 1 2 4 5 7 7 5 3 4 4 4 4 3 3 3 3 3 3 3 3 4 5 6 6 6 7 7 7 6 6 6 6 6 5 5 5 5
7 6 1 5 6 4 2 4 5 5 6 6 7 7 6 6 6 5 5 4 4 4 4 3 3 3 4 4 5 5 5 6 6 7 6 6 6 6 6 5 5 5 5 5
7 10 9 9 10 9 8 8 8 7 7 7 8 8 8 7 6 6 6 5 4 4 4 4 4 3 4 4 4 4 5 5 5 6 6 6 6 5 5 6 5 5 5 6
9 10 9 8 8 8 7 7 8 7 7 9 9 9 8 8 8 7 6 5 5 5 5 5 4 4 3 3 3 4 4 5 5 5 5 6 5 5 6 5 6 6 6 6
10 8 8 8 7 7 8 9 9 8 8 8 9 10 9 9 8 7 7 6 6 6 6 5 5 4 3 3 3 3 4 4 4 4 5 5 5 5 5 5 8 8 8 8
11 8 9 11 10 9 9 10 9 9 9 9 9 8 8 8 7 7 7 7 7 7 6 5 5 4 3 3 3 4 4 4 4 4 4 5 5 5 6 6 6 6 8 10
12 10 11 11 11 10 9 9 9 9 9 9 8 7 7 7 7 8 8 7 7 6 6 5 5 5 4 3 3 4 4 4 4 4 4 5 5 5 5 6 7 6 7 9
12 12 12 11 10 9 8 7 8 9 8 8 7 7 8 8 8 8 7 6 5 6 5 5 5 5 4 3 4 4 4 4 4 4 4 4 5 5 5 6 6 7 7 7
8 9 10 11 12 11 9 9 9 10 9 8 7 8 8 8 7 6 5 5 6 7 6 6 6 5 4 4 4 4 4 5 4 4 4 4 4 5 5 5 6 6 6 6
9 9 9 10 11 11 11 11 10 10 9 9 9 7 6 6 6 6 5 5 6 6 6 6 6 5 5 5 5 4 4 4 4 4 4 4 4 5 5 5 5 6 6 7
12 12 11 11 11 11 10 10 10 10 9 8 7 6 7 7 8 7 6 5 4 5 6 6 5 5 5 5 5 4 3 3 4 4 4 4 5 5 5 5 6 6 6 6
10 10 11 11 11 10 10 10 9 9 8 7 7 7 8 8 7 6 5 5 6 6 6 5 6 5 5 6 5 4 4 4 4 4 4 5 5 4 4 5 5 5 5 5
7 7 8 9 9 9 9 9 8 7 7 6 6 6 6 6 6 5 6 6 6 5 4 4 5 5 5 5 5 4 4 4 4 4 4 4 4 4 4 4 5 5 5 5
6 7 7 7 7 8 8 7 6 6 6 6 7 7 6 5 5 5 5 5 5 4 4 5 4 4 4 4 5 4 4 4 4 4 3 4 4 4 4 4 4 4 4 4
6 6 6 6 6 6 6 5 5 5 5 5 5 5 5 5 5 5 6 5 3 4 3 3 4 4 4 4 4 4 4 4 3 3 3 3 3 4 4 4 4 4 4 4
5 6 6 5 5 4 4 3 4 4 5 5 5 6 6 5 5 4 4 3 3 4 4 4 4 5 5 4 3 3 4 4 3 3 3 3 3 3 3 4 4 4 4 4
5 5 4 3 2 3 3 3 2 2 3 3 4 5 5 4 3 4 3 4 4 4 4 4 5 5 5 3 3 3 3 3 3 3 3 3 3 3 3 3 3 3 3 4
4 4 4 3 3 4 4 3 2 2 2 2 3 3 3 3 3 3 3 3 5 4 3 4 5 5 4 3 3 3 3 3 3 3 3 3 3 3 3 3 3 3 3 3
5 4 4 4 4 3 3 3 3 3 2 2 2 2 2 2 2 2 2 3 3 4 3 3 3 4 3 3 3 3 3 3 3 3 2 2 3 3 3 3 4 3 3 3
4 4 3 3 3 3 3 4 4 4 3 3 3 2 2 2 2 2 2 2 2 3 3 3 3 3 3 3 3 3 3 3 3 2 2 2 2 2 3 3 3 3 3 3
Wind_Direction
272 278 259 253 244 224 221 233 242 259 265 278 288 290 294 305 317 326 336 342 344 343 344 345 347 350 355 357 357 357 2 5 359 356 359 1 360 353 349 339 310 286 278 269
277 265 266 262 251 234 233 237 245 262 271 275 279 280 286 294 302 307 316 327 333 334 336 338 342 344 349 354 354 357 2 0 356 357 2 4 2 360 358 350 348 347 336 324
269 298 286 261 240 215 215 218 221 238 252 254 261 262 272 278 283 286 295 305 313 318 324 329 334 338 342 345 349 358 1 360 358 358 2 360 359 358 354 347 348 352 348 346
289 301 250 257 114 206 219 237 228 244 257 253 261 271 266 257 261 276 286 292 298 308 315 322 329 334 338 345 352 357 358 359 359 358 358 357 359 356 350 346 347 344 343 339
257 276 275 270 200 189 214 257 232 236 250 255 277 277 250 228 244 265 273 278 286 294 305 318 326 331 339 346 351 355 355 354 353 354 354 354 353 349 347 346 344 341 333 331
232 254 255 255 150 170 206 256 222 222 232 224 213 261 269 215 245 262 271 277 285 293 304 313 322 330 338 343 347 347 344 343 345 347 349 348 343 340 339 338 332 330 326 325
231 248 266 258 161 168 213 306 68 220 224 211 221 258 304 232 234 243 252 266 273 278 288 302 316 325 332 335 337 335 336 340 345 346 344 341 338 338 337 335 331 329 326 325
204 225 252 156 159 201 259 350 265 252 240 233 243 262 261 241 232 232 242 253 258 264 275 291 302 308 313 320 326 332 338 344 346 346 347 342 341 340 338 335 332 331 327 324
216 234 306 181 212 243 265 270 269 262 262 248 248 249 250 245 238 236 238 243 247 252 264 276 283 289 297 311 325 331 339 342 341 343 345 345 343 342 342 340 336 332 328 323
256 259 258 251 252 255 251 255 265 264 257 244 247 248 247 245 239 238 239 241 242 245 254 264 272 279 293 312 323 327 331 332 335 338 340 343 343 340 339 337 332 329 325 319
252 267 278 263 241 246 254 261 265 263 255 249 249 249 245 243 239 238 239 239 237 240 249 258 263 269 287 305 312 316 321 324 327 332 333 335 334 332 331 334 333 326 323 320
247 251 252 270 271 265 262 262 260 260 262 255 246 247 244 242 238 235 234 234 236 242 248 254 256 261 272 285 290 300 308 314 320 323 326 326 324 323 324 322 332 334 334 328
256 270 268 278 280 269 265 267 265 257 254 257 250 243 240 242 237 233 233 231 235 240 244 247 248 254 261 269 274 281 291 301 307 311 315 317 319 322 324 325 323 330 336 338
252 262 271 268 270 271 269 270 269 264 259 253 248 242 237 239 235 231 230 231 235 239 241 239 242 250 253 254 261 272 281 286 293 299 304 307 311 314 316 318 320 322 328 334
251 246 255 270 276 277 274 270 265 263 261 255 243 236 232 231 232 234 232 228 229 234 237 237 243 251 250 248 254 264 272 281 288 294 297 300 305 307 307 308 308 312 319 326
258 255 255 261 265 268 269 263 261 264 262 255 246 239 235 234 236 234 225 214 219 231 235 235 242 249 246 246 252 257 261 273 284 289 292 296 300 302 304 305 306 309 315 321
253 259 258 261 261 262 261 257 257 259 257 251 247 243 236 231 232 230 225 220 225 232 232 233 242 245 240 239 243 251 259 266 271 281 286 292 296 298 300 301 303 306 310 319
244 253 257 259 262 264 265 261 256 253 251 249 244 233 225 222 226 228 225 220 225 235 236 237 238 237 235 235 237 245 252 261 268 276 284 289 294 297 300 301 304 306 313 318
250 255 259 259 259 260 263 262 259 255 249 237 227 226 227 227 226 222 211 211 221 235 240 234 231 230 234 233 235 237 244 255 263 269 278 286 290 295 299 301 304 307 312 319
259 260 261 263 262 257 256 258 256 251 242 228 223 225 227 227 219 212 211 222 230 236 232 224 225 231 235 232 228 232 238 248 256 264 272 279 286 292 298 303 304 307 311 315
266 268 266 265 266 262 256 253 245 242 239 223 218 222 227 228 215 208 214 234 238 226 224 216 221 231 231 229 222 229 234 242 251 259 265 274 282 288 295 304 308 310 313 317
263 264 264 264 264 267 264 251 239 234 231 226 225 221 217 218 215 220 229 237 232 210 215 222 229 232 225 220 220 224 229 238 247 255 261 269 277 284 292 301 304 309 313 316
262 262 261 260 257 265 272 256 236 227 225 223 220 217 216 217 212 217 236 231 221 215 221 228 232 225 216 211 218 222 226 232 240 248 256 264 273 280 286 293 297 302 306 311
258 260 257 256 250 253 262 267 251 237 231 233 228 220 213 214 228 232 238 213 210 216 228 231 222 218 212 212 216 222 229 235 241 247 253 259 267 274 281 286 291 297 300 303
244 247 243 233 237 247 253 255 247 233 225 233 236 228 223 223 225 227 222 215 212 216 231 225 218 215 208 212 214 221 229 235 241 244 246 252 260 268 275 279 281 286 289 292
236 239 241 241 243 244 239 232 235 233 223 226 240 235 226 221 211 213 216 217 216 218 223 222 215 209 210 212 218 225 231 239 244 245 247 250 258 264 271 276 280 281 283 285
232 235 239 247 245 232 228 229 230 230 223 219 236 235 220 212 207 206 209 214 215 217 218 214 210 210 212 215 221 226 231 234 236 241 245 249 254 259 266 270 275 279 281 282
Height
1497 1496 1496 1494 1492 1493 1494 1488 1485 1478 1478 1474 1476 1477 1476 1476 1474 1473 1471 1468 1466 1463 1459 1455 1452 1448 1445 1441 1438 1435 1432 1430 1428 1426 1424 1423 1422 1422 1422 1422 1422 1423 1423 1423
1496 1495 1494 1492 1487 1487 1488 1487 1484 1481 1477 1474 1475 1476 1475 1474 1473 1471 1470 1468 1465 1463 1460 1456 1452 1449 1446 1442 1439 1436 1433 1430 1428 1425 1423 1422 1421 1420 1420 1420 1419 1419 1419 1418
1489 1492 1491 1481 1476 1479 1480 1479 1479 1476 1472 1473 1474 1474 1474 1473 1471 1470 1469 1467 1464 1462 1459 1456 1453 1450 1446 1443 1440 1437 1434 1431 1428 1425 1423 1422 1421 1420 1419 1418 1417 1417 1416 1415
1492 1489 1483 1471 1476 1475 1476 1474 1474 1473 1471 1472 1472 1472 1471 1470 1469 1468 1467 1465 1463 1460 1458 1455 1452 1449 1447 1444 1441 1438 1435 1432 1429 1427 1424 1423 1421 1420 1419 1417 1416 1414 1413 1413
1493 1484 1474 1471 1474 1475 1474 1470 1469 1470 1470 1471 1471 1470 1468 1467 1467 1466 1465 1463 1461 1459 1457 1454 1452 1449 1446 1444 1441 1438 1435 1432 1430 1427 1425 1423 1421 1420 1418 1416 1415 1413 1412 1410
1494 1486 1473 1466 1472 1474 1475 1467 1466 1467 1467 1469 1469 1466 1464 1464 1464 1463 1462 1461 1459 1457 1455 1453 1450 1448 1445 1443 1440 1438 1435 1432 1430 1427 1425 1423 1421 1419 1417 1415 1414 1412 1410 1409
1491 1484 1468 1468 1472 1474 1470 1463 1465 1465 1465 1466 1466 1464 1463 1462 1461 1461 1460 1458 1457 1455 1453 1451 1449 1447 1444 1442 1439 1437 1435 1432 1430 1427 1424 1422 1420 1418 1416 1414 1412 1410 1408 1406
1485 1482 1470 1468 1470 1469 1464 1464 1463 1463 1463 1463 1462 1461 1460 1459 1458 1458 1457 1455 1454 1452 1451 1449 1447 1445 1442 1440 1438 1436 1433 1431 1428 1425 1423 1420 1418 1416 1414 1412 1410 1407 1405 1403
1474 1468 1465 1466 1464 1464 1463 1463 1461 1461 1460 1460 1459 1458 1457 1456 1455 1454 1454 1453 1451 1450 1448 1446 1444 1442 1440 1438 1436 1434 1432 1429 1427 1424 1421 1419 1416 1413 1411 1409 1407 1405 1403 1401
1472 1463 1462 1462 1461 1460 1460 1459 1458 1458 1457 1456 1455 1454 1453 1453 1452 1451 1450 1449 1448 1447 1445 1443 1442 1440 1438 1437 1435 1432 1430 1427 1425 1422 1420 1417 1414 1412 1409 1407 1405 1403 1400 1398
1466 1460 1459 1456 1456 1456 1456 1455 1454 1453 1453 1452 1451 1450 1449 1448 1448 1447 1447 1446 1445 1444 1442 1441 1439 1437 1436 1435 1433 1431 1428 1426 1423 1421 1418 1416 1413 1411 1408 1406 1403 1401 1399 1397
1455 1454 1455 1452 1452 1452 1451 1450 1450 1449 1447 1447 1446 1445 1444 1444 1444 1443 1443 1442 1441 1440 1439 1437 1436 1434 1433 1432 1430 1428 1426 1424 1421 1419 1416 1414 1411 1409 1406 1404 1401 1399 1396 1394
1451 1450 1450 1448 1447 1447 1446 1445 1444 1444 1442 1441 1441 1440 1440 1439 1439 1439 1438 1438 1437 1436 1435 1434 1432 1431 1430 1429 1427 1426 1424 1422 1419 1417 1415 1412 1409 1406 1404 1401 1399 1397 1394 1391
1447 1447 1445 1443 1442 1442 1441 1440 1439 1438 1437 1436 1436 1435 1435 1434 1434 1434 1433 1433 1433 1432 1431 1430 1429 1428 1427 1425 1424 1423 1421 1419 1417 1415 1412 1410 1407 1405 1402 1398 1396 1393 1391 1388
1440 1440 1439 1438 1437 1436 1435 1435 1434 1432 1431 1431 1430 1430 1429 1429 1429 1429 1429 1429 1428 1428 1427 1426 1425 1424 1423 1422 1421 1419 1418 1416 1414 1412 1410 1407 1405 1402 1399 1396 1393 1390 1387 1384
1434 1434 1433 1432 1431 1430 1430 1429 1428 1427 1426 1425 1424 1424 1424 1424 1424 1424 1424 1423 1423 1422 1422 1422 1421 1420 1419 1418 1417 1416 1414 1413 1411 1409 1407 1404 1402 1399 1396 1394 1391 1388 1385 1382
1429 1427 1426 1426 1425 1424 1424 1423 1422 1421 1420 1419 1419 1419 1418 1418 1418 1418 1418 1418 1418 1418 1418 1417 1417 1416 1415 1414 1413 1412 1411 1409 1407 1405 1403 1401 1399 1396 1393 1391 1388 1385 1382 1380
1421 1421 1421 1420 1419 1418 1417 1417 1416 1415 1415 1414 1414 1413 1413 1412 1412 1412 1413 1413 1413 1413 1413 1413 1413 1412 1411 1410 1409 1408 1407 1405 1404 1402 1400 1398 1395 1393 1390 1388 1385 1382 1379 1377
1415 1415 1414 1414 1413 1412 1411 1411 1410 1409 1409 1408 1408 1407 1407 1407 1407 1408 1408 1408 1408 1408 1408 1408 1408 1407 1406 1406 1405 1404 1403 1402 1400 1398 1396 1394 1392 1390 1387 1385 1382 1379 1377 1374
1409 1409 1408 1407 1407 1406 1405 1405 1404 1403 1403 1403 1402 1402 1402 1402 1403 1403 1403 1403 1403 1404 1404 1403 1403 1402 1402 1401 1400 1399 1399 1397 1396 1394 1393 1391 1389 1386 1384 1382 1379 1377 1374 1372
1405 1404 1403 1402 1401 1400 1400 1399 1398 1397 1397 1398 1397 1397 1398 1398 1398 1398 1398 1398 1399 1399 1399 1399 1398 1397 1397 1396 1396 1395 1394 1393 1392 1391 1389 1387 1385 1383 1381 1379 1377 1374 1372 1370
1400 1399 1398 1397 1396 1395 1394 1394 1393 1392 1392 1392 1393 1393 1393 1393 1394 1394 1394 1395 1394 1394 1394 1394 1393 1393 1392 1392 1391 1390 1390 1389 1388 1387 1385 1384 1382 1380 1378 1376 1374 1372 1370 1368
1396 1395 1394 1393 1392 1391 1390 1389 1389 1388 1388 1388 1388 1389 1389 1389 1389 1390 1389 1390 1390 1390 1389 1389 1389 1389 1388 1388 1387 1386 1385 1385 1384 1383 1382 1380 1379 1377 1376 1374 1372 1370 1368 1367
1392 1391 1390 1389 1388 1387 1386 1385 1385 1384 1384 1384 1385 1385 1385 1385 1385 1386 1385 1385 1385 1385 1385 1385 1385 1384 1384 1383 1383 1382 1381 1381 1380 1379 1378 1377 1376 1374 1373 1371 1370 1368 1366 1365
1389 1387 1386 1385 1385 1383 1383 1382 1381 1381 1380 1380 1381 1381 1381 1382 1382 1381 1381 1381 1381 1381 1380 1380 1380 1380 1380 1379 1379 1378 1378 1377 1376 1376 1375 1374 1373 1371 1370 1369 1367 1366 1364 1363
1384 1383 1382 1382 1381 1380 1379 1378 1378 1377 1377 1376 1377 1377 1377 1377 1377 1377 1377 1377 1376 1376 1376 1376 1376 1376 1375 1375 1375 1374 1374 1373 1373 1372 1371 1370 1370 1369 1368 1366 1365 1364 1362 1361
1379 1379 1378 1377 1377 1376 1376 1375 1374 1373 1373 1373 1373 1373 1373 1374 1373 1373 1373 1372 1372 1372 1372 1372 1372 1372 1371 1371 1371 1370 1370 1370 1369 1369 1368 1367 1367 1366 1365 1364 1363 1361 1360 1359